UPDATE 02.09.20 Die Stationsgrafiken wurden erweitert. Temperaturgrafik und Regentage unter Almanach -> Seperate Stationsgrafiken -> Temperatur
Besuchen Sie den Menüpunkt "Almanach / History" WU-Grafiken um Wetterdaten über die Jahre zu vergleichen!
Die Daten stammen von meiner Wetterstation und wurden von Weatherunderground aufgezeichnet.
Extreme low temperature From: 16-01-2021 00:00 Until: 23:59 warning for: Extreme low temperature Level: Yellow info button

Rindlberg West more information Rindlberg West


Stuetzi - Rindlberg Ost more information Stuetzi - Rindlberg Ost


Rain radar more information rain snow radar


You find our weather info also at:

Weather Underground

AWEKAS



IOBERSTE7 History tables / reports. Script startWUhistory.php

Select another period ( hide this area )

Units Period Custom range Directly to
Metric English Both
Daily Weekly Monthly Yearly
use both date-selectors for a custom range
previous Day
With this date

WeatherUnderground graphs for this period ( click here ) Loading the graph can take up to a minute!


Daily Summary for Saturday Jan 16 2021
Time Temp. ( °C ) Dew pt. ( °C ) Wind ( km/h ) from Gust ( km/h ) Pressure ( hPa ) Humid.( % ) Rainrate ( cm )
High-6,3 -8,6 27,0 NNW ( 861/1666 ) 27,0 1018,0 84 -
Average-7,1 -9,5 18,3 NW #46/91 20,7 1016,9 83 -
Low-8,0 -10,7 10,0   11,0 1016,9 81 -
Daily Tabular details for Saturday Jan 16 2021
Time Temp. ( °C ) Dew pt. ( °C ) Wind ( km/h ) from Gust ( km/h ) Pressure ( hPa ) Humid.( % ) Rainrate ( cm )
00:04 -6,3 -8,6 24,0 NNW 24,0 1016,9 84 -
00:09 -6,3 -8,6 24,0 NNW 24,0 1016,9 84 -
00:14 -6,3 -8,6 19,0 NW 24,0 1016,9 84 -
00:19 -6,3 -8,6 23,0 NNW 24,0 1016,9 84 -
00:24 -6,3 -8,6 21,0 NNW 24,0 1016,9 84 -
00:29 -6,3 -8,6 18,0 NNW 23,0 1016,9 84 -
00:34 -6,4 -8,7 15,0 NNW 23,0 1016,9 84 -
00:39 -6,4 -8,7 19,0 NNW 21,0 1016,9 84 -
00:44 -6,4 -8,7 18,0 NNW 21,0 1016,9 84 -
00:49 -6,4 -8,7 24,0 NNW 19,0 1016,9 84 -
00:54 -6,4 -8,7 21,0 NNW 24,0 1016,9 84 -
00:59 -6,4 -8,7 18,0 NNW 24,0 1016,9 84 -
01:04 -6,5 -8,8 21,0 NNW 24,0 1016,9 84 -
01:09 -6,5 -8,8 19,0 NNW 21,0 1016,9 84 -
01:14 -6,5 -8,8 21,0 NNW 21,0 1016,9 84 -
01:19 -6,5 -8,8 21,0 NNW 21,0 1016,9 84 -
01:24 -6,5 -8,8 21,0 NW 21,0 1016,9 84 -
01:29 -6,5 -8,8 21,0 NW 21,0 1016,9 84 -
01:34 -6,5 -8,8 18,0 NNW 21,0 1016,9 84 -
01:39 -6,6 -8,9 21,0 NW 21,0 1016,9 84 -
01:44 -6,6 -8,9 24,0 NNW 21,0 1016,9 84 -
01:49 -6,6 -8,9 21,0 NNW 24,0 1016,9 84 -
01:54 -6,7 -9,1 19,0 NNW 24,0 1016,9 83 -
01:59 -6,7 -9,1 26,0 NNW 24,0 1016,9 83 -
02:04 -6,7 -9,1 21,0 NNW 26,0 1016,9 83 -
02:09 -6,7 -9,1 26,0 NNW 26,0 1016,9 83 -
02:14 -6,7 -9,1 21,0 NNW 26,0 1016,9 83 -
02:19 -6,7 -9,1 18,0 NNW 26,0 1016,9 83 -
02:24 -6,7 -9,1 26,0 NNW 26,0 1016,9 83 -
02:29 -6,7 -9,1 21,0 NNW 26,0 1016,9 83 -
02:34 -6,7 -9,1 18,0 NNW 26,0 1018,0 83 -
02:39 -6,8 -9,2 27,0 NNW 26,0 1018,0 83 -
02:44 -6,8 -9,2 18,0 NNW 27,0 1018,0 83 -
02:49 -6,8 -9,2 21,0 NNW 27,0 1018,0 83 -
02:54 -6,8 -9,2 21,0 NNW 27,0 1016,9 83 -
02:59 -6,8 -9,2 15,0 NW 27,0 1016,9 83 -
03:04 -6,9 -9,3 16,0 NW 21,0 1016,9 83 -
03:09 -6,9 -9,3 21,0 NW 21,0 1016,9 83 -
03:14 -6,9 -9,3 15,0 NW 21,0 1016,9 83 -
03:19 -6,9 -9,3 13,0 NW 21,0 1016,9 83 -
03:24 -6,9 -9,3 13,0 NNW 21,0 1016,9 83 -
03:29 -6,9 -9,3 19,0 NW 15,0 1016,9 83 -
03:34 -7,0 -9,4 21,0 NW 18,0 1016,9 83 -
03:39 -7,0 -9,4 18,0 NNW 21,0 1016,9 83 -
03:44 -7,0 -9,4 24,0 NW 21,0 1016,9 83 -
03:49 -7,0 -9,4 18,0 NW 21,0 1016,9 83 -
03:54 -7,0 -9,4 18,0 NW 24,0 1016,9 83 -
03:59 -7,0 -9,4 18,0 NW 24,0 1016,9 83 -
04:04 -7,0 -9,4 19,0 NNW 18,0 1016,9 83 -
04:09 -7,1 -9,5 19,0 NW 19,0 1016,9 83 -
04:14 -7,1 -9,5 18,0 NW 19,0 1016,9 83 -
04:19 -7,1 -9,5 21,0 NNW 19,0 1016,9 83 -
04:24 -7,2 -9,6 16,0 NW 21,0 1016,9 83 -
04:29 -7,2 -9,6 23,0 NNW 21,0 1016,9 83 -
04:34 -7,2 -9,6 19,0 NW 23,0 1016,9 83 -
04:39 -7,2 -9,6 18,0 NNW 23,0 1016,9 83 -
04:44 -7,2 -9,7 13,0 NW 23,0 1016,9 82 -
04:49 -7,2 -9,7 15,0 NW 23,0 1016,9 82 -
04:54 -7,3 -9,8 11,0 NW 19,0 1016,9 82 -
04:59 -7,3 -9,8 13,0 NW 15,0 1016,9 82 -
05:04 -7,3 -9,8 10,0 NW 15,0 1016,9 82 -
05:09 -7,3 -9,8 11,0 NW 15,0 1016,9 82 -
05:14 -7,4 -9,9 13,0 NW 13,0 1016,9 82 -
05:19 -7,4 -9,9 13,0 NW 11,0 1016,9 82 -
05:24 -7,4 -9,9 15,0 NW 13,0 1016,9 82 -
05:29 -7,4 -9,9 15,0 WNW 13,0 1016,9 82 -
05:34 -7,4 -9,8 15,0 WNW 15,0 1016,9 83 -
05:39 -7,4 -9,8 18,0 WNW 15,0 1016,9 83 -
05:44 -7,4 -9,8 13,0 NW 15,0 1016,9 83 -
05:49 -7,4 -9,8 16,0 NW 18,0 1016,9 83 -
05:54 -7,4 -9,8 18,0 NNW 18,0 1016,9 83 -
05:59 -7,4 -9,8 18,0 NNW 18,0 1016,9 83 -
06:04 -7,5 -9,9 24,0 NNW 18,0 1016,9 83 -
06:09 -7,5 -9,9 18,0 NNW 24,0 1016,9 83 -
06:14 -7,6 -10,1 16,0 NW 24,0 1016,9 82 -
06:19 -7,6 -10,1 18,0 NNW 24,0 1016,9 82 -
06:24 -7,6 -10,1 15,0 NW 18,0 1016,9 82 -
06:29 -7,6 -10,1 13,0 NW 18,0 1016,9 82 -
06:34 -7,7 -10,2 16,0 NW 18,0 1016,9 82 -
06:39 -7,7 -10,2 13,0 NW 18,0 1016,9 82 -
06:44 -7,8 -10,3 13,0 NW 16,0 1016,9 82 -
06:49 -7,8 -10,3 18,0 NW 16,0 1016,9 82 -
06:54 -7,8 -10,3 18,0 NW 18,0 1016,9 82 -
06:59 -7,8 -10,3 18,0 NW 18,0 1016,9 82 -
07:04 -7,9 -10,4 18,0 NW 18,0 1016,9 82 -
07:09 -7,9 -10,4 18,0 NW 18,0 1016,9 82 -
07:14 -7,9 -10,4 15,0 NW 18,0 1016,9 82 -
07:19 -8,0 -10,5 16,0 NW 18,0 1016,9 82 -
07:24 -8,0 -10,5 16,0 NW 18,0 1016,9 82 -
07:29 -8,0 -10,5 21,0 NW 16,0 1016,9 82 -
07:34 -8,0 -10,7 18,0 NW 21,0 1016,9 81 -
Daily Summary for Saturday Jan 16 2021
Time Temp. ( °C ) Dew pt. ( °C ) Wind ( km/h ) from Gust ( km/h ) Pressure ( hPa ) Humid.( % ) Rainrate ( cm )
High-6,3 -8,6 27,0 NNW ( 861/1666 ) 27,0 1018,0 84 -
Average-7,1 -9,5 18,3 NW #46/91 20,7 1016,9 83 -
Low-8,0 -10,7 10,0   11,0 1016,9 81 -
Daily Tabular details for Saturday Jan 16 2021
Time Temp. ( °C ) Dew pt. ( °C ) Wind ( km/h ) from Gust ( km/h ) Pressure ( hPa ) Humid.( % ) Rainrate ( cm )
00:04 -6,3 -8,6 24,0 NNW 24,0 1016,9 84 -
00:09 -6,3 -8,6 24,0 NNW 24,0 1016,9 84 -
00:14 -6,3 -8,6 19,0 NW 24,0 1016,9 84 -
00:19 -6,3 -8,6 23,0 NNW 24,0 1016,9 84 -
00:24 -6,3 -8,6 21,0 NNW 24,0 1016,9 84 -
00:29 -6,3 -8,6 18,0 NNW 23,0 1016,9 84 -
00:34 -6,4 -8,7 15,0 NNW 23,0 1016,9 84 -
00:39 -6,4 -8,7 19,0 NNW 21,0 1016,9 84 -
00:44 -6,4 -8,7 18,0 NNW 21,0 1016,9 84 -
00:49 -6,4 -8,7 24,0 NNW 19,0 1016,9 84 -
00:54 -6,4 -8,7 21,0 NNW 24,0 1016,9 84 -
00:59 -6,4 -8,7 18,0 NNW 24,0 1016,9 84 -
01:04 -6,5 -8,8 21,0 NNW 24,0 1016,9 84 -
01:09 -6,5 -8,8 19,0 NNW 21,0 1016,9 84 -
01:14 -6,5 -8,8 21,0 NNW 21,0 1016,9 84 -
01:19 -6,5 -8,8 21,0 NNW 21,0 1016,9 84 -
01:24 -6,5 -8,8 21,0 NW 21,0 1016,9 84 -
01:29 -6,5 -8,8 21,0 NW 21,0 1016,9 84 -
01:34 -6,5 -8,8 18,0 NNW 21,0 1016,9 84 -
01:39 -6,6 -8,9 21,0 NW 21,0 1016,9 84 -
01:44 -6,6 -8,9 24,0 NNW 21,0 1016,9 84 -
01:49 -6,6 -8,9 21,0 NNW 24,0 1016,9 84 -
01:54 -6,7 -9,1 19,0 NNW 24,0 1016,9 83 -
01:59 -6,7 -9,1 26,0 NNW 24,0 1016,9 83 -
02:04 -6,7 -9,1 21,0 NNW 26,0 1016,9 83 -
02:09 -6,7 -9,1 26,0 NNW 26,0 1016,9 83 -
02:14 -6,7 -9,1 21,0 NNW 26,0 1016,9 83 -
02:19 -6,7 -9,1 18,0 NNW 26,0 1016,9 83 -
02:24 -6,7 -9,1 26,0 NNW 26,0 1016,9 83 -
02:29 -6,7 -9,1 21,0 NNW 26,0 1016,9 83 -
02:34 -6,7 -9,1 18,0 NNW 26,0 1018,0 83 -
02:39 -6,8 -9,2 27,0 NNW 26,0 1018,0 83 -
02:44 -6,8 -9,2 18,0 NNW 27,0 1018,0 83 -
02:49 -6,8 -9,2 21,0 NNW 27,0 1018,0 83 -
02:54 -6,8 -9,2 21,0 NNW 27,0 1016,9 83 -
02:59 -6,8 -9,2 15,0 NW 27,0 1016,9 83 -
03:04 -6,9 -9,3 16,0 NW 21,0 1016,9 83 -
03:09 -6,9 -9,3 21,0 NW 21,0 1016,9 83 -
03:14 -6,9 -9,3 15,0 NW 21,0 1016,9 83 -
03:19 -6,9 -9,3 13,0 NW 21,0 1016,9 83 -
03:24 -6,9 -9,3 13,0 NNW 21,0 1016,9 83 -
03:29 -6,9 -9,3 19,0 NW 15,0 1016,9 83 -
03:34 -7,0 -9,4 21,0 NW 18,0 1016,9 83 -
03:39 -7,0 -9,4 18,0 NNW 21,0 1016,9 83 -
03:44 -7,0 -9,4 24,0 NW 21,0 1016,9 83 -
03:49 -7,0 -9,4 18,0 NW 21,0 1016,9 83 -
03:54 -7,0 -9,4 18,0 NW 24,0 1016,9 83 -
03:59 -7,0 -9,4 18,0 NW 24,0 1016,9 83 -
04:04 -7,0 -9,4 19,0 NNW 18,0 1016,9 83 -
04:09 -7,1 -9,5 19,0 NW 19,0 1016,9 83 -
04:14 -7,1 -9,5 18,0 NW 19,0 1016,9 83 -
04:19 -7,1 -9,5 21,0 NNW 19,0 1016,9 83 -
04:24 -7,2 -9,6 16,0 NW 21,0 1016,9 83 -
04:29 -7,2 -9,6 23,0 NNW 21,0 1016,9 83 -
04:34 -7,2 -9,6 19,0 NW 23,0 1016,9 83 -
04:39 -7,2 -9,6 18,0 NNW 23,0 1016,9 83 -
04:44 -7,2 -9,7 13,0 NW 23,0 1016,9 82 -
04:49 -7,2 -9,7 15,0 NW 23,0 1016,9 82 -
04:54 -7,3 -9,8 11,0 NW 19,0 1016,9 82 -
04:59 -7,3 -9,8 13,0 NW 15,0 1016,9 82 -
05:04 -7,3 -9,8 10,0 NW 15,0 1016,9 82 -
05:09 -7,3 -9,8 11,0 NW 15,0 1016,9 82 -
05:14 -7,4 -9,9 13,0 NW 13,0 1016,9 82 -
05:19 -7,4 -9,9 13,0 NW 11,0 1016,9 82 -
05:24 -7,4 -9,9 15,0 NW 13,0 1016,9 82 -
05:29 -7,4 -9,9 15,0 WNW 13,0 1016,9 82 -
05:34 -7,4 -9,8 15,0 WNW 15,0 1016,9 83 -
05:39 -7,4 -9,8 18,0 WNW 15,0 1016,9 83 -
05:44 -7,4 -9,8 13,0 NW 15,0 1016,9 83 -
05:49 -7,4 -9,8 16,0 NW 18,0 1016,9 83 -
05:54 -7,4 -9,8 18,0 NNW 18,0 1016,9 83 -
05:59 -7,4 -9,8 18,0 NNW 18,0 1016,9 83 -
06:04 -7,5 -9,9 24,0 NNW 18,0 1016,9 83 -
06:09 -7,5 -9,9 18,0 NNW 24,0 1016,9 83 -
06:14 -7,6 -10,1 16,0 NW 24,0 1016,9 82 -
06:19 -7,6 -10,1 18,0 NNW 24,0 1016,9 82 -
06:24 -7,6 -10,1 15,0 NW 18,0 1016,9 82 -
06:29 -7,6 -10,1 13,0 NW 18,0 1016,9 82 -
06:34 -7,7 -10,2 16,0 NW 18,0 1016,9 82 -
06:39 -7,7 -10,2 13,0 NW 18,0 1016,9 82 -
06:44 -7,8 -10,3 13,0 NW 16,0 1016,9 82 -
06:49 -7,8 -10,3 18,0 NW 16,0 1016,9 82 -
06:54 -7,8 -10,3 18,0 NW 18,0 1016,9 82 -
06:59 -7,8 -10,3 18,0 NW 18,0 1016,9 82 -
07:04 -7,9 -10,4 18,0 NW 18,0 1016,9 82 -
07:09 -7,9 -10,4 18,0 NW 18,0 1016,9 82 -
07:14 -7,9 -10,4 15,0 NW 18,0 1016,9 82 -
07:19 -8,0 -10,5 16,0 NW 18,0 1016,9 82 -
07:24 -8,0 -10,5 16,0 NW 18,0 1016,9 82 -
07:29 -8,0 -10,5 21,0 NW 16,0 1016,9 82 -
07:34 -8,0 -10,7 18,0 NW 21,0 1016,9 81 -

Download your copy of this data-set  here

Our weather-data as stored at Weather Underground. Script developed by Jim McMurry. Rewritten for template use Leuven-Template